Showing default

PUNCH-NFI00, 63178

Orbit data source: Space-Track

PUNCH-NFI00, 63178 is an American payload satellite in SSO that was launched on Wed, 12 Mar 2025 UTC via an FALCON 9 launch vehicle from the Air Force Western Test Range (AFWTR). Payload-class satellites include a variety of spacecraft equipped with specific instruments for various scientific and technological missions. These include communications satellites like Starlink; space stations such as the ISS; scientific satellites like the Hubble; Earth observation satellites from companies like Planet Labs, Umbra, and HawkEye 360; GPS; miniature CubeSats for education and research; and military/defense satellites.

Loading next visibility...
Identifier
63178, 2025-047A
Orbit
SSO
Country
Flag of USUS
Related business
Manufacturer
SWRI
Mission
Operational Civil Astronomy
Bus & Motor
PUNCH, Unknown motor
Mass
64 kg wet, 64 kg dry
Launch date (UTC)
2025-03-12 (1 year ago)
Launch vehicle
FALCON 9
Launch site
Air Force Western Test Range (AFWTR)
Object type
Payload
Rocket body
Debris
Shape & HBR
Cyl + Cone + 2 Pan, 1.9 m
Radar Cross Section
10.556 m², Medium (>0.1 m² and < 1m²)

Expand to show TLE details & history
Last TLE update: 11 hours ago

TLE from 11 hours ago
0 PUNCH-NFI00
1 63178U 25047A   26171.40159302  .00000384  00000-0  64876-4 0  9994
2 63178  97.9564 356.8189 0011889 142.5566 217.6473 14.74772216 68558
Epoch: 2026-06-20T09:38Z
TLE epoch observation values (Epoch: 2026-06-20T09:38:17.636Z)
Latitude
-0.00009°
Longitude
-56.37131°
Altitude
655.504 km
Speed
7.526 km/s
True Right ascension
23h 47m 16s
True Declination
0° 00' 00"
Sunlit
Object was in daylight at epoch
Visualization orbit readout
Latitude
Unknown
Longitude
Unknown
Altitude
Unknown
Speed
Unknown
Apparent Right ascension
Unknown
Apparent Declination
Unknown
Sunlit
N/A
Visualization observer readout
Local Sidereal Time
07:18:39
Azimuth
Unknown
Elevation
Unknown
Doppler factor
Unknown
Orbital elements
Apogee altitude
651.272 km
Perigee altitude
634.577 km
Semi-major axis
7,021.062 km
Eccentricity
0.00119
Inclination
97.9564°
RAAN
356.8189°
Arg. of periapsis
142.5566°
True anomaly
217.56418°
Mean anomaly
217.6473°
Eccentric anomaly
217.60573°
Mean motion
3.68926 °/min
Orbital period
97.58 mins
BSTAR
0.000064876
Loading maneuver chart data...
Computing Atmospheric mass density...
Loading historical data...
Loading historical data...
Loading historical data...
Loading historical data...
Loading historical data...
Loading historical data...
Loading historical data...
Other satellites on launch #47 in the year 2025 (2025-03-12 UTC)

Documentation

Showing up to 5 results
|